Regional Weather Roundup
Issued by NWS Midland/Odessa, TX

Skip options and go directly to product.
Home | Oldest Version | Previous Version | Current Version | All | Text Only | Save Text | Print | Product List | Glossary Off

Skip product version selection by date and time.   

666
ASUS44 KMAF 312302
RWRMAF
MIDLAND AREA WEATHER ROUNDUP
NATIONAL WEATHER SERVICE MIDLAND TX
600 PM CDT FRI OCT 31 2014

...IN SOUTHWEST TEXAS AND SOUTHEAST NEW MEXICO...

CITY           SKY/WX    TMP DP  RH WIND       PRES   REMARKS
ALPINE         SUNNY     67  40  36 SE10      30.36S
ANDREWS        FAIR      65  33  30 E14       30.33S
ARTESIA        NOT AVBL
BIG SPRING     SUNNY     66  32  28 NE10      30.35R
CARLSBAD       PTSUNNY   69  35  28 SE10      30.28S
DRYDEN           N/A     76  33  21 E7        30.25S
FORT STOCKTON  SUNNY     71  29  21 E15G22    30.28S
GUAD PASS      NOT AVBL
HOBBS          SUNNY     63  32  31 SE12      30.34S
MARFA          SUNNY     66  43  42 E14       30.32S
MIDLAND AIRPK  SUNNY     68  32  26 E10       30.33R
MIDLAND INTL   SUNNY     68  32  26 E13       30.31S
ODESSA         SUNNY     68  29  23 E14       30.32S
PECOS          SUNNY     72  32  22 E13       30.27S
PRESIDIO       FAIR      78  46  31 NE18G28   30.18S
SEMINOLE       SUNNY     64  33  31 SE10      30.34S
SNYDER         CLEAR     63  34  33 NE9       30.35S
WINK           SUNNY     71  28  20 E13       30.27S
$$
...OTHER STATIONS IN TEXAS...

CITY           SKY/WX    TMP DP  RH WIND       PRES   REMARKS
ABILENE        CLEAR     66  32  28 NE9       30.33R
AMARILLO       CLEAR     59  29  31 SE13      30.34F
AUSTIN         PTCLDY    71  40  32 N17       30.23R
BROWNSVILLE    PTCLDY    77  62  59 N10G24    30.14R
CORPUS CHRISTI PTCLDY    77  51  40 N10       30.16R
DALLAS FTW     PTCLDY    63  37  38 NE17G23   30.30R
DEL RIO        SUNNY     81  36  19 VRB3      30.21S
EL PASO        PTSUNNY   73  46  38 SE20G29   30.17F
HOUSTON INT    PTCLDY    73  40  30 N14       30.17R
LUBBOCK        CLOUDY    63  30  28 SE8       30.34S
SAN ANGELO     CLEAR     70  31  23 E13       30.30S
SAN ANTONIO    PTCLDY    75  37  25 N13       30.22R
WACO           CLEAR     66  39  37 N13       30.27R
WICHITA FALLS  NOT AVBL
$$
...OTHER LOCATIONS IN NEW MEXICO...

CITY           SKY/WX    TMP DP  RH WIND       PRES   REMARKS
ALAMAGORDO     NOT AVBL
ALBUQUERQUE    MOSUNNY   69  35  28 SE13      30.22F
CANNON AFB     SUNNY     63  31  30 S13       30.33S
CLOVIS         SUNNY     61  30  31 S14       30.36S
HOLLOMAN AFB   MOSUNNY   71  37  28 S22       30.19S
ROSWELL        MOSUNNY   67  33  28 S13       30.30S
RUIDOSO        MOSUNNY   50  32  50 E15       30.38S
SANTA FE       MOSUNNY   63  27  25 S18       30.28F
TRUTH OR CONSE SUNNY     70  40  33 S7        30.21S
TUCUMCARI      SUNNY     65  29  25 S12       30.29F
$$

USA.gov is the U.S. government's official web portal to all federal, state and local government web resources and services.